Historyczne dane pomiarowe

Dodano dane terminowe – wersja testowa.

Dane z okresu 1951-2019

Wersja bazy: 1.34 [2019-03-16, lista zmian], aktualizacja planowana na 2019-04-15

Dane meteo z obszaru Polski uzyskane na podstawie danych udostępnionych przez Instytut Meteorologii i Gospodarki Wodnej – Państwowy Instytut Badawczy.

 

Wybierz Datę:    

       

TemperaturaWilgotnośćZachmurzenieWiatrCiśnienieWidzialnośćZjawiska
 Data    tng td wb rh cc ccl cl cm ch dir g1 g2 mslp ppp      
1973-04-27 00:00:00 -3.0--- -3.7 -3.195wxwx8wx--- 834.5 0.0---wx
1973-04-27 01:00:00 -3.2------wxwx7wx--- 834.5----wx
1973-04-27 02:00:00 -3.2------wxwx8wx--- 834.3----wx
1973-04-27 03:00:00 -2.8--- -3.8 -3.093wxwxwx11wx--- 834.1----wx
1973-04-27 04:00:00 -2.8------wxwxwx8wx--- 834.2----wx
1973-04-27 05:00:00 -3.0------wxwxwx6wx--- 834.2----wx
1973-04-27 06:00:00 -2.4--- -5.7 -3.677wxwxwx5wx--- 834.5 0.0---wx
1973-04-27 07:00:00 -2.0------wxwxwx6wx--- 834.7----wx
1973-04-27 08:00:00 -1.0------wxwxwx4wx--- 834.8----wx
1973-04-27 09:00:00 -0.6--- -3.5 -1.879wxwxwx3wx--- 834.6----wx
1973-04-27 10:00:00 -0.6------wxwxwxwx5wx--- 834.5----wx
1973-04-27 11:00:00 -0.1------wxwxwx4wx--- 834.5----wx
1973-04-27 12:00:00 0.2--- -4.7 -1.869wxwxwxwx7wx--- 834.4 0.0---wx
1973-04-27 13:00:00 0.9------wxwxwx3wx--- 834.4----wx
1973-04-27 14:00:00 1.2------wxwxwx5wx--- 834.0----wx
1973-04-27 15:00:00 1.4--- -4.7 -1.063wxwxwx6wx--- 833.5----wx
1973-04-27 16:00:00 1.6------wxwxwx3wx--- 833.5----wx
1973-04-27 17:00:00 1.0------wxwxwxwx4wx--- 833.4----wx
1973-04-27 18:00:00 0.4--- -3.0 -1.079wxwxwxwx5wx--- 833.1 0.0---wx
1973-04-27 19:00:00 0.4------wxwxwxwx6wx--- 833.3----wx
1973-04-27 20:00:00 -0.2------wxwxwxwx5wx--- 832.9----wx
1973-04-27 21:00:00 0.2--- -3.3 -1.278wxwxwx7wx--- 832.8----wx
1973-04-27 22:00:00 -0.2------wxwx8wx--- 832.8----wx
1973-04-27 23:00:00 -0.5------wxwx9wx--- 832.8----wx

 

Źródłem pochodzenia danych jest Instytut Meteorologii i Gospodarki Wodnej – Państwowy Instytut Badawczy. Dane Instytutu Meteorologii i Gospodarki Wodnej – Państwowego Instytutu Badawczego zostały przetworzone.

Dane źródłowe można odnaleźć na stronie https://dane.imgw.pl